SCP
0 0 0 0 0 0 0 0 0 0 0 0 0 0 0 0 0 0 0 0 0 0 0 0 0 0 0 0 0 0 0 0
0 0 -0 0 0 0 0 0 0 0 0 0 0 0 0 0 0 0 0 0 0 0 0 0 0 0 0 0 0 0 0 0
0 0 0 0 0 -0 0 0 0 0 0 0 0 0 0 0 0 0 -0 0 0 0 0 0 0 0 0 0 0 0 0 0
0 0 0 0 0 0 0 0 0 0 0 0 0 0 0 0 0 0 0 0 0 0 0 0 0 0 0 0 0 0 0 0
0 0 0 0 0 0 0 0 0 0 0 0 0 0 0 0 0 0 0 0 0 0 0 0 0 0 0 0 0 0 0 0
0 0 0 0 0 0 0 0 0 0 0 0 -0 -0 -0 0 0 0 0 0 0 0 0 0 0 0 0 0 0 0 0 0
0 0 0 0 0 0 0 0 0 0 0 -0 -0 -0 -0 0 0 0 0 0 0 0 0 0 0 0 0 0 0 0 0 0
0 0 0 0 0 0 0 0 0 0 0 0 0 0 0 0 0 0 0 0 0 0 0 0 0 0 0 0 0 0 0 0
0 0 0 0 0 0 0 0 0 0 0 0 0 0 0 0 0 0 0 0 0 0 0 0 0 0 0 0 0 0 0 0
-0 -0 0 0 0 0 0 0 0 0 0 0 0 0 0 0 0 0 0 0 0 0 0 0 0 0 0 0 0 0 0 0
0 0 0 0 0 0 0 0 0 0 0 0 0 0 0 0 0 0 0 0 0 0 0 0 0 0 0 0 0 0 0 0
0 0 0 0 0 0 0 0 0 0 0 0 0 0 0 0 0 0 0 0 0 0 0 0 0 0 0 0 0 0 0 0
0 0 0 0 0 0 0 0 0 0 0 0 0 0 0 0 0 0 0 0 0 0 0 0 0 0 0 0 0 0 0 0
0 0 0 0 0 0 0 0 0 0 0 0 0 0 0 0 0 0 0 0 0 0 0 0 0 0 0 0 0 0 0 0
0 0 0 0 0 0 0 0 0 0 0 0 0 0 0 0 0 0 0 0 0 0 0 0 0 0 0 0 0 0 0 0
0 0 0 0 0 0 0 0 0 0 0 0 0 0 0 0 0 0 0 0 0 0 0 0 0 0 0 0 0 0 0 0
0 0 0 0 0 0 0 0 0 0 0 0 0 0 0 0 0 0 0 0 0 0 0 0 0 0 0 0 0 0 0 0
0 0 0 0 0 0 0 0 0 0 0 0 0 0 0 0 0 0 0 0 0 0 0 0 0 0 0 0 0 0 0 0
-0 -0 0 0 0 0 0 0 0 0 0 0 0 0 0 0 0 0 0 0 0 0 0 0 0 0 0 0 0 0 0 0
-0 -0 -0 -0 0 0 0 0 0 0 0 0 0 0 0 0 0 0 0 0 0 0 0 0 0 0 0 0 0 0 0 0
Wind_Speed_500mb
15 18 21 22 24 25 26 26 25 25 24 24 25 27 25 21 17 17 16 16 20 21 21 23 27 30 34 33 31 35 33 38
15 18 20 20 21 22 23 21 18 18 21 24 23 19 17 16 16 16 14 16 16 15 17 20 23 25 27 30 34 37 38 37
21 20 20 20 19 19 19 17 17 18 19 18 15 11 10 11 12 13 12 14 12 12 14 15 16 17 19 23 26 31 33 34
17 18 18 18 17 16 17 16 17 18 17 14 9 7 9 8 8 8 8 9 9 9 9 9 9 11 16 21 25 29 31 32
17 18 18 18 18 18 17 15 17 16 16 12 8 9 8 9 10 8 8 7 5 6 7 7 8 12 16 18 21 28 32 30
26 22 20 19 20 20 19 20 19 17 15 12 11 9 5 9 11 8 8 5 4 6 9 10 13 16 18 21 23 24 24 29
29 25 27 26 23 23 23 24 25 19 16 14 14 11 8 11 12 10 9 10 11 12 14 15 19 20 22 24 24 24 25 23
33 33 30 31 33 25 24 28 28 26 22 22 21 18 18 19 19 17 18 19 19 19 21 20 22 24 25 27 28 26 25 25
33 32 31 32 34 32 28 27 30 29 29 30 31 30 29 31 29 27 28 27 27 27 29 31 27 29 28 29 30 30 28 26
35 36 36 36 35 35 31 32 31 28 34 37 41 43 41 42 39 37 40 40 39 39 37 37 31 32 32 33 32 31 29 28
33 33 33 32 32 32 31 32 35 36 37 39 44 50 53 52 52 50 50 51 48 47 44 42 40 35 36 37 38 36 30 29
25 27 28 29 28 29 30 32 34 37 41 44 44 48 52 57 59 59 58 59 59 56 52 49 45 41 41 40 44 41 38 34
24 25 26 28 30 30 32 33 34 36 37 39 42 46 51 55 57 60 63 67 69 66 63 57 49 46 44 46 46 44 47 41
27 27 27 28 33 35 35 37 36 36 36 37 38 39 43 49 52 57 60 66 70 72 71 70 54 47 44 47 48 47 51 49
29 29 30 30 32 35 37 38 39 37 35 36 38 36 34 38 43 48 52 56 60 67 71 69 67 58 47 48 50 50 52 50
32 33 33 35 35 36 37 38 38 37 36 35 35 36 36 33 35 39 38 40 45 47 53 59 64 59 54 52 51 50 50 50
30 32 32 35 36 36 37 37 39 37 37 36 36 36 35 36 34 27 31 29 29 34 40 49 51 50 50 51 51 49 46 48
33 34 35 36 37 36 36 36 35 35 35 35 35 36 37 35 36 40 28 28 29 29 34 39 46 49 42 41 42 41 38 43
35 35 36 35 35 35 36 35 35 34 34 34 35 36 36 35 34 34 37 37 31 25 24 27 32 38 42 48 53 53 51 51
39 38 36 34 32 33 34 34 34 34 33 33 31 30 32 32 30 29 27 28 29 26 20 22 22 24 30 35 37 37 39 42
Wind_Direction_500mb
305 306 308 303 294 286 281 278 279 282 286 287 290 281 268 264 261 263 268 282 278 277 290 304 300 297 299 307 311 306 306 305
345 326 322 313 303 294 285 281 280 286 294 296 280 265 270 275 273 274 275 276 283 299 304 304 303 305 309 314 313 309 303 297
358 342 327 317 310 304 297 295 294 291 284 266 258 273 287 287 295 288 279 289 300 311 315 313 314 318 330 340 339 328 318 308
357 354 332 315 305 298 295 291 284 271 265 259 265 285 297 318 312 289 285 290 307 321 327 335 350 3 8 5 2 353 340 328
341 351 342 322 308 295 288 284 282 278 272 267 272 282 314 318 287 286 287 287 310 318 338 342 2 359 353 345 357 1 357 347
339 332 335 329 317 299 289 283 277 276 275 278 275 277 314 293 282 278 271 282 296 303 312 313 329 332 336 335 342 338 342 350
336 332 326 320 320 311 286 279 278 275 279 279 281 288 278 263 263 259 271 283 285 293 293 302 306 310 315 320 324 325 330 334
331 329 326 315 310 311 304 279 276 273 272 272 269 271 270 264 264 267 271 275 280 286 292 295 297 299 304 306 309 314 315 321
322 320 316 310 302 301 302 297 278 271 268 266 266 264 262 263 265 266 271 274 275 277 283 286 288 290 293 296 300 305 309 311
318 317 313 308 304 300 295 288 287 279 265 261 260 259 257 258 262 265 268 271 275 276 277 280 282 284 288 289 291 294 299 301
316 316 309 304 304 304 301 290 284 280 277 273 268 266 264 262 261 261 263 268 270 272 274 275 278 280 283 284 286 286 287 289
325 325 323 319 317 314 310 303 299 294 289 285 279 275 271 268 264 263 262 263 265 266 268 270 274 276 278 278 278 282 281 282
341 341 336 330 328 327 322 318 315 309 305 298 290 281 278 274 270 266 265 264 264 265 266 266 268 272 273 274 273 276 278 280
344 347 343 338 333 332 328 326 323 319 314 308 304 296 286 280 277 272 268 266 267 268 267 267 267 267 270 270 271 270 272 278
346 349 349 346 340 335 332 329 327 326 321 316 310 304 297 288 284 279 277 276 274 272 273 273 271 267 267 267 267 267 270 275
347 349 348 346 344 340 336 332 330 331 329 327 323 318 311 304 298 288 284 285 286 283 280 277 273 273 269 267 267 267 268 269
348 348 348 347 345 343 340 338 335 336 336 336 332 328 323 316 308 302 294 293 286 288 290 293 290 282 274 271 269 269 270 274
351 350 347 344 344 345 345 344 342 341 341 339 335 333 332 329 323 318 313 307 291 280 273 271 273 272 271 272 268 268 273 269
354 349 343 343 341 344 346 345 344 344 341 341 343 339 336 335 333 329 326 326 325 317 307 286 276 272 268 265 268 267 261 259
354 349 343 339 339 340 341 343 344 342 343 347 348 346 345 344 343 340 336 332 332 333 327 312 303 291 281 279 279 280 278 278
Wind_Speed_850mb
15 18 21 22 24 25 26 26 25 25 24 24 25 27 25 21 17 17 16 16 20 21 21 23 27 30 34 33 31 35 33 38
15 18 20 20 21 22 23 21 18 18 21 24 23 19 17 16 16 16 14 16 16 15 17 20 23 25 27 30 34 37 38 37
21 20 20 20 19 19 19 17 17 18 19 18 15 11 10 11 12 13 12 14 12 12 14 15 16 17 19 23 26 31 33 34
17 18 18 18 17 16 17 16 17 18 17 14 9 7 9 8 8 8 8 9 9 9 9 9 9 11 16 21 25 29 31 32
17 18 18 18 18 18 17 15 17 16 16 12 8 9 8 9 10 8 8 7 5 6 7 7 8 12 16 18 21 28 32 30
26 22 20 19 20 20 19 20 19 17 15 12 11 9 5 9 11 8 8 5 4 6 9 10 13 16 18 21 23 24 24 29
29 25 27 26 23 23 23 24 25 19 16 14 14 11 8 11 12 10 9 10 11 12 14 15 19 20 22 24 24 24 25 23
33 33 30 31 33 25 24 28 28 26 22 22 21 18 18 19 19 17 18 19 19 19 21 20 22 24 25 27 28 26 25 25
33 32 31 32 34 32 28 27 30 29 29 30 31 30 29 31 29 27 28 27 27 27 29 31 27 29 28 29 30 30 28 26
35 36 36 36 35 35 31 32 31 28 34 37 41 43 41 42 39 37 40 40 39 39 37 37 31 32 32 33 32 31 29 28
33 33 33 32 32 32 31 32 35 36 37 39 44 50 53 52 52 50 50 51 48 47 44 42 40 35 36 37 38 36 30 29
25 27 28 29 28 29 30 32 34 37 41 44 44 48 52 57 59 59 58 59 59 56 52 49 45 41 41 40 44 41 38 34
24 25 26 28 30 30 32 33 34 36 37 39 42 46 51 55 57 60 63 67 69 66 63 57 49 46 44 46 46 44 47 41
27 27 27 28 33 35 35 37 36 36 36 37 38 39 43 49 52 57 60 66 70 72 71 70 54 47 44 47 48 47 51 49
29 29 30 30 32 35 37 38 39 37 35 36 38 36 34 38 43 48 52 56 60 67 71 69 67 58 47 48 50 50 52 50
32 33 33 35 35 36 37 38 38 37 36 35 35 36 36 33 35 39 38 40 45 47 53 59 64 59 54 52 51 50 50 50
30 32 32 35 36 36 37 37 39 37 37 36 36 36 35 36 34 27 31 29 29 34 40 49 51 50 50 51 51 49 46 48
33 34 35 36 37 36 36 36 35 35 35 35 35 36 37 35 36 40 28 28 29 29 34 39 46 49 42 41 42 41 38 43
35 35 36 35 35 35 36 35 35 34 34 34 35 36 36 35 34 34 37 37 31 25 24 27 32 38 42 48 53 53 51 51
39 38 36 34 32 33 34 34 34 34 33 33 31 30 32 32 30 29 27 28 29 26 20 22 22 24 30 35 37 37 39 42
Wind_Direction_850mb
305 306 308 303 294 286 281 278 279 282 286 287 290 281 268 264 261 263 268 282 278 277 290 304 300 297 299 307 311 306 306 305
345 326 322 313 303 294 285 281 280 286 294 296 280 265 270 275 273 274 275 276 283 299 304 304 303 305 309 314 313 309 303 297
358 342 327 317 310 304 297 295 294 291 284 266 258 273 287 287 295 288 279 289 300 311 315 313 314 318 330 340 339 328 318 308
357 354 332 315 305 298 295 291 284 271 265 259 265 285 297 318 312 289 285 290 307 321 327 335 350 3 8 5 2 353 340 328
341 351 342 322 308 295 288 284 282 278 272 267 272 282 314 318 287 286 287 287 310 318 338 342 2 359 353 345 357 1 357 347
339 332 335 329 317 299 289 283 277 276 275 278 275 277 314 293 282 278 271 282 296 303 312 313 329 332 336 335 342 338 342 350
336 332 326 320 320 311 286 279 278 275 279 279 281 288 278 263 263 259 271 283 285 293 293 302 306 310 315 320 324 325 330 334
331 329 326 315 310 311 304 279 276 273 272 272 269 271 270 264 264 267 271 275 280 286 292 295 297 299 304 306 309 314 315 321
322 320 316 310 302 301 302 297 278 271 268 266 266 264 262 263 265 266 271 274 275 277 283 286 288 290 293 296 300 305 309 311
318 317 313 308 304 300 295 288 287 279 265 261 260 259 257 258 262 265 268 271 275 276 277 280 282 284 288 289 291 294 299 301
316 316 309 304 304 304 301 290 284 280 277 273 268 266 264 262 261 261 263 268 270 272 274 275 278 280 283 284 286 286 287 289
325 325 323 319 317 314 310 303 299 294 289 285 279 275 271 268 264 263 262 263 265 266 268 270 274 276 278 278 278 282 281 282
341 341 336 330 328 327 322 318 315 309 305 298 290 281 278 274 270 266 265 264 264 265 266 266 268 272 273 274 273 276 278 280
344 347 343 338 333 332 328 326 323 319 314 308 304 296 286 280 277 272 268 266 267 268 267 267 267 267 270 270 271 270 272 278
346 349 349 346 340 335 332 329 327 326 321 316 310 304 297 288 284 279 277 276 274 272 273 273 271 267 267 267 267 267 270 275
347 349 348 346 344 340 336 332 330 331 329 327 323 318 311 304 298 288 284 285 286 283 280 277 273 273 269 267 267 267 268 269
348 348 348 347 345 343 340 338 335 336 336 336 332 328 323 316 308 302 294 293 286 288 290 293 290 282 274 271 269 269 270 274
351 350 347 344 344 345 345 344 342 341 341 339 335 333 332 329 323 318 313 307 291 280 273 271 273 272 271 272 268 268 273 269
354 349 343 343 341 344 346 345 344 344 341 341 343 339 336 335 333 329 326 326 325 317 307 286 276 272 268 265 268 267 261 259
354 349 343 339 339 340 341 343 344 342 343 347 348 346 345 344 343 340 336 332 332 333 327 312 303 291 281 279 279 280 278 278